Date String (YYYY-MM-DD hh:mm:ss) UTC,Instrument flags,Ambient pressure (hPa),Sample flow (lpm),Bypass flow (lpm),Sample temperature (°C),Ambient temperature (°C),ASC tube jacket temperature (°C),LED temperature (°C),Box temperature (°C),Sample RH (%),Span deviation,Mass concentration (μg/m³),Mass concentration (μg/m³),Mass concentration (μg/m³)
DateTimeUTC,F1_M11,P_M11,Q1_M11,Q2_M11,T1_M11,T2_M11,T3_M11,T4_M11,T5_M11,U1_M11,ZSPAN_M11,X2_M11,X0_M11,X1_M11
2021-12-02 20:00:00,,0826.5,5.00,0.00,29.7,26.4,00.0,38.8,31.2,08.5,0000.0,0001.48,0009.57,0000.63
2021-12-02 20:01:00,,0826.5,4.99,0.00,29.7,27.0,00.0,38.8,31.2,08.7,0000.0,0001.48,0009.07,0000.64
2021-12-02 20:02:00,,0826.5,5.01,0.00,29.7,27.5,00.0,38.7,31.3,08.9,0000.0,0001.54,0008.54,0000.64
2021-12-02 20:03:00,,0826.5,4.99,0.00,29.7,27.9,00.0,38.7,31.4,08.8,0000.0,0001.58,0008.80,0000.65
2021-12-02 20:04:00,,0826.5,5.01,0.00,29.8,28.2,00.0,38.7,31.5,08.9,0000.0,0001.61,0010.52,0000.65
2021-12-02 20:05:00,,0826.5,4.99,0.00,29.8,28.4,00.0,38.7,31.6,08.7,0000.0,0001.66,0010.86,0000.65
2021-12-02 20:06:00,,0826.5,4.98,0.00,29.9,28.7,00.0,38.8,31.7,08.6,0000.0,0001.75,0011.48,0000.65
2021-12-02 20:07:00,,0826.4,5.00,0.00,29.9,28.9,00.0,38.8,31.7,08.6,0000.0,0001.77,0011.84,0000.66
2021-12-02 20:08:00,,0826.5,4.99,0.00,30.0,29.0,00.0,38.8,31.8,08.6,0000.0,0001.78,0011.93,0000.66
2021-12-02 20:09:00,,0826.5,5.02,0.00,30.0,29.2,00.0,38.8,31.9,08.6,0000.0,0001.88,0012.27,0000.67
2021-12-02 20:10:00,,0826.5,5.00,0.00,30.1,29.3,00.0,38.8,32.0,08.5,0000.0,0001.89,0012.50,0000.67
2021-12-02 20:11:00,,0826.5,5.00,0.00,30.1,29.4,00.0,38.9,32.0,08.5,0000.0,0001.87,0012.57,0000.67
2021-12-02 20:12:00,,0826.5,5.00,0.00,30.2,29.3,00.0,38.9,32.0,08.5,0000.0,0001.92,0012.70,0000.66
2021-12-02 20:13:00,,0826.5,5.00,0.00,30.1,27.3,00.0,38.9,31.5,08.6,0000.0,0001.95,0012.69,0000.66
2021-12-02 20:14:00,,0826.4,5.01,0.00,29.9,25.8,00.0,38.9,31.1,08.8,0000.0,0002.00,0012.65,0000.66
2021-12-02 20:15:00,,0826.4,4.99,0.00,29.8,26.0,00.0,38.8,31.1,08.8,0000.0,0002.00,0011.31,0000.67
2021-12-02 20:16:00,,0826.4,5.01,0.00,29.7,26.5,00.0,38.8,31.2,08.9,0000.0,0002.03,0010.30,0000.68
2021-12-02 20:17:00,,0826.4,4.99,0.00,29.7,27.0,00.0,38.8,31.2,08.9,0000.0,0002.06,0009.89,0000.69
2021-12-02 20:18:00,,0826.4,5.01,0.00,29.7,27.4,00.0,38.7,31.3,08.9,0000.0,0002.03,0009.38,0000.69
2021-12-02 20:19:00,,0826.3,4.99,0.00,29.7,27.8,00.0,38.7,31.4,08.9,0000.0,0002.06,0009.52,0000.70
2021-12-02 20:20:00,,0826.3,4.99,0.00,29.8,28.2,00.0,38.7,31.5,08.9,0000.0,0002.01,0009.91,0000.69
2021-12-02 20:21:00,,0826.3,4.99,0.00,29.8,28.5,00.0,38.7,31.6,08.9,0000.0,0001.99,0009.93,0000.69
2021-12-02 20:22:00,,0826.3,5.02,0.00,29.9,28.7,00.0,38.7,31.7,08.8,0000.0,0002.02,0010.15,0000.70
2021-12-02 20:23:00,,0826.2,4.98,0.00,29.9,28.9,00.0,38.7,31.8,08.8,0000.0,0002.04,0010.68,0000.72
2021-12-02 20:24:00,,0826.2,5.01,0.00,30.0,29.1,00.0,38.8,31.8,08.8,0000.0,0002.01,0011.66,0000.73
2021-12-02 20:25:00,,0826.2,4.99,0.00,30.0,29.2,00.0,38.8,31.9,08.8,0000.0,0002.00,0012.18,0000.73
2021-12-02 20:26:00,,0826.2,5.00,0.00,30.1,29.3,00.0,38.8,32.0,08.8,0000.0,0002.06,0012.55,0000.74
2021-12-02 20:27:00,,0826.2,5.00,0.00,30.1,28.2,00.0,38.8,31.7,08.9,0000.0,0002.10,0012.46,0000.73
2021-12-02 20:28:00,,0826.2,5.01,0.00,29.9,26.1,00.0,38.8,31.1,09.0,0000.0,0002.04,0012.18,0000.73
2021-12-02 20:29:00,,0826.2,5.01,0.00,29.7,25.8,00.0,38.8,30.9,09.0,0000.0,0002.04,0012.06,0000.74
2021-12-02 20:30:00,,0826.2,4.99,0.00,29.7,26.3,00.0,38.7,31.0,09.0,0000.0,0002.01,0012.05,0000.74
2021-12-02 20:31:00,,0826.2,4.99,0.00,29.6,26.8,00.0,38.7,31.1,09.1,0000.0,0002.09,0011.95,0000.76
2021-12-02 20:32:00,,0826.2,4.99,0.00,29.6,27.2,00.0,38.7,31.2,09.0,0000.0,0002.15,0011.51,0000.77
2021-12-02 20:33:00,,0826.2,5.01,0.00,29.6,27.6,00.0,38.6,31.3,09.0,0000.0,0002.16,0011.05,0000.77
2021-12-02 20:34:00,,0826.2,4.99,0.00,29.7,28.0,00.0,38.6,31.4,09.0,0000.0,0002.12,0010.71,0000.76
2021-12-02 20:35:00,,0826.1,4.99,0.00,29.7,28.3,00.0,38.7,31.5,08.9,0000.0,0002.10,0009.62,0000.75
2021-12-02 20:36:00,,0826.0,4.99,0.00,29.8,28.6,00.0,38.7,31.6,08.9,0000.0,0002.05,0009.13,0000.75
2021-12-02 20:37:00,,0826.0,5.00,0.00,29.8,28.8,00.0,38.7,31.7,08.9,0000.0,0002.01,0008.87,0000.75
2021-12-02 20:38:00,,0826.0,5.02,0.00,29.9,28.9,00.0,38.7,31.7,08.9,0000.0,0001.98,0009.12,0000.75
2021-12-02 20:39:00,,0826.0,5.00,0.00,29.9,29.1,00.0,38.7,31.8,08.8,0000.0,0002.04,0010.03,0000.76
2021-12-02 20:40:00,,0826.1,5.00,0.00,30.0,29.3,00.0,38.8,31.9,08.8,0000.0,0002.08,0010.41,0000.75
2021-12-02 20:41:00,,0826.0,4.99,0.00,30.0,28.9,00.0,38.8,31.8,08.7,0000.0,0002.10,0011.16,0000.73
2021-12-02 20:42:00,,0826.0,5.00,0.00,29.9,26.7,00.0,38.8,31.2,08.7,0000.0,0002.12,0012.47,0000.72
2021-12-02 20:43:00,,0825.9,5.01,0.00,29.7,25.6,00.0,38.7,30.9,08.7,0000.0,0002.09,0012.48,0000.71
2021-12-02 20:44:00,,0826.0,4.99,0.00,29.6,26.0,00.0,38.7,31.0,08.7,0000.0,0002.05,0012.25,0000.70
2021-12-02 20:45:00,,0826.0,5.00,0.00,29.6,26.4,00.0,38.6,31.1,08.8,0000.0,0002.01,0012.55,0000.69
2021-12-02 20:46:00,,0826.0,4.99,0.00,29.6,27.0,00.0,38.6,31.1,08.9,0000.0,0002.02,0013.07,0000.69
2021-12-02 20:47:00,,0826.0,5.01,0.00,29.6,27.4,00.0,38.6,31.2,08.9,0000.0,0002.05,0012.85,0000.68
2021-12-02 20:48:00,,0825.9,4.99,0.00,29.6,27.8,00.0,38.6,31.3,08.8,0000.0,0002.00,0012.41,0000.68
2021-12-02 20:49:00,,0826.0,5.02,0.00,29.6,28.1,00.0,38.6,31.4,08.7,0000.0,0001.94,0012.47,0000.67
2021-12-02 20:50:00,,0825.9,4.99,0.00,29.7,28.4,00.0,38.6,31.5,08.8,0000.0,0001.80,0012.03,0000.66
2021-12-02 20:51:00,,0825.9,5.02,0.00,29.7,28.6,00.0,38.6,31.6,08.9,0000.0,0001.76,0012.24,0000.66
2021-12-02 20:52:00,,0826.0,5.00,0.00,29.8,28.8,00.0,38.6,31.7,08.8,0000.0,0001.78,0011.53,0000.67
2021-12-02 20:53:00,,0825.9,5.00,0.00,29.8,29.0,00.0,38.7,31.7,08.9,0000.0,0001.72,0009.46,0000.68
2021-12-02 20:54:00,,0825.9,5.00,0.00,29.9,29.1,00.0,38.7,31.8,08.9,0000.0,0001.70,0009.07,0000.68
2021-12-02 20:55:00,,0825.9,5.00,0.00,30.0,29.2,00.0,38.7,31.8,08.9,0000.0,0001.73,0009.26,0000.69
2021-12-02 20:56:00,,0825.9,4.99,0.00,30.0,29.3,00.0,38.8,31.9,08.9,0000.0,0001.77,0009.70,0000.71
2021-12-02 20:57:00,,0826.0,5.00,0.00,30.1,29.4,00.0,38.8,32.0,08.9,0000.0,0001.81,0009.77,0000.72
2021-12-02 20:58:00,,0825.9,4.99,0.00,30.1,29.5,00.0,38.8,32.0,08.9,0000.0,0001.85,0010.48,0000.73
2021-12-02 20:59:00,,0825.9,5.02,0.00,30.2,29.2,00.0,38.9,31.9,08.8,0000.0,0001.84,0011.36,0000.74
